User: anonymous   Login
Location: Borkenes
(68.7830°N, 16.1830°E)
Time: 19:56:50
(UTC+01:00)
Language:

Altair - Orbit

View from above orbital plane
View from above orbital plane
View from above satellite
View from above satellite

Ground track
Ground track

The orbit data is extracted from the following two-line orbital elements,

1    50U 60009B   19341.50457586 -.00000094  00000-0 -73058-4 0  9990
2    50  47.2329   0.1168 0112917 110.8603 250.4320 12.20108903647122
Epoch (UTC): 07 December 2019 12:06:35
Eccentricity: 0.0112917
inclination: 47.2329°
perigee height: 1502 km
apogee height: 1682 km
right ascension of ascending node: 0.1168°
argument of perigee: 110.8603°
revolutions per day: 12.20108903
mean anomaly at epoch: 250.4320°
orbit number at epoch: 64712

The dashed part of the orbit path shows where the satellite is in the earth's shadow,  

DLR